Tracking 20721 objects as of 2-Jun-2020
HD Live streaming from Space Station
objects crossing your sky now

DELTA 1 R/B

Track DELTA 1 R/B now!
10-day predictions


NORAD ID: 575
Int'l Code: 1963-013B
Perigee: 975.7 km
Apogee: 10,784.9 km
Inclination: 42.8 °
Period: 224.9 minutes
Semi major axis: 12251 km
RCS: 0.4447 m2 (medium)
Launch date: May 7, 1963
Source: United States (US)
Launch site: AIR FORCE EASTERN TEST RANGE (AFETR)

Note: This is a ROCKET BODY
aabbcc
Your satellite tracking list
Your tracking list is empty




NASA's NSSDC Master Catalog

Two Line Element Set (TLE):
1   575U 63013B   20151.79800432 +.00000048 +00000-0 +11084-2 0  9990
2   575 042.7552 102.3991 4003342 039.3916 021.0650 06.40220524334746
Source of the keplerian elements: AFSPC